Weather in Yunakivka

Ukraine / Sumi District     51°07′13″N   35°02′14″E
temp.,
°C
wind,
m/s
gust,
m/s
humid.,
%
clouds,
%
prec.,
mm/h
press.,
hPa
HPBL,
m
21 october, thu
thu2100:00+9ssw71755100 0.0 1018732
03:00+10sw71766100 0.0 1016710
06:00+9sw7178098 0.0 1014537
09:00+10sw7177896 0.0 1013559
12:00+14sw81659100 0.0 1012726
15:00+16sw8155151 0.0 1011904
18:00+14sw81659100 0.0 1009940
21:00+13ssw8176899 0.0 1008893
22 october, fri
fri2200:00+11ssw7177523 0.0 1007686
03:00+10ssw7158149 0.0 1006591
06:00+10sw61477100 0.0 1007489
09:00+12sw6136770 0.0 1008887
12:00+15w7124614 0.0 10101373
15:00+15w611435 0.0 10101646
18:00+12wsw39555 0.0 1012294
21:00+10sw411605 0.0 1012306
23 october, sat
sat2300:00+9sw4126337 0.0 1012411
03:00+9w3116495 0.0 1013726
06:00+11sw5125365 0.0 10111008
09:00+9wsw510680 0.0 1012789
12:00+12w7124513 0.0 10131692
15:00+11w7114116 0.0 10142208
18:00+8w49564 0.0 1016655
21:00+6wsw411605 0.0 1017475
24 october, sun
sun2400:00+5wsw310685 0.0 1018399
03:00+3wsw410775 0.0 1018338
06:00+3wsw4118091 0.0 1018399
09:00+4w4979100 0.0 1019609
12:00+7wnw6864100 0.1 10191312
15:00+5wnw6972100 0.5 10191159
18:00+3nw51081100 0.9 10201010
21:00+2nw61295100 1.2 1021858
25 october, mon
mon2500:00+2nnw61071100 0.1 1023978
03:00+1nnw51075100 0.1 10251169
06:00+2n5978100 0.0 10281278
09:00+2n486693 0.1 10301140
12:00+4n564960 0.0 10321248
15:00+5nne56445 0.0 10321305
18:00+2nne25575 0.0 1034111
21:000nne24640 0.0 103579